Tracking 18628 objects as of 24-April-2017
HD Live streaming from Space Station
objects crossing your sky now

METEOR 1-11 DEB

Track METEOR 1-11 DEB now!
10-day predictions


NORAD ID: 36305
Int'l Code: 1972-022D
Perigee: 755.7 km
Apogee: 787.4 km
Inclination: 81.2 °
Period: 100.1 minutes
Semi major axis: 7142 km
RCS: 0.003 m2 (small)
Launch date: March 30, 1972
Source: Commonwealth of Independent States (former USSR) (CIS)
Launch site: PLESETSK MISSILE AND SPACE COMPLEX (PKMTR)

Note: This is SATELLITE DEBRIS
Your satellite tracking list
Your tracking list is empty





NASA's NSSDC Master Catalog

Two Line Element Set (TLE):
1 36305U 72022D   17108.99762966 +.00002444 +00000-0 +79808-3 0  9990
2 36305 081.2039 216.0516 0022181 148.1693 212.0839 14.38222280453479
Source of the keplerian elements: AFSPC